Theta_e
339 334 336 342 344 345 345 344 344 345 345 342 345 345 345 345 345 343 343 347 345 344 343 341 340 338 339 339 338 337 336 337 338 338 338 339 340 339 339 340 342 344 344
341 337 339 344 345 345 346 346 344 343 345 344 343 345 345 345 345 344 345 345 350 346 343 341 336 336 337 337 338 338 338 338 338 337 338 338 338 340 341 343 344 343 342
343 342 344 345 345 343 344 345 346 347 346 346 343 345 344 345 345 347 345 344 349 351 345 341 338 339 339 338 338 337 336 335 337 339 339 341 342 343 343 343 343 341 340
340 343 344 344 344 344 347 346 346 344 346 343 343 345 345 345 345 345 346 346 345 350 344 342 338 340 341 340 337 335 335 336 339 340 342 343 343 342 342 342 341 336 335
342 342 340 343 345 342 345 342 343 346 344 344 343 344 344 345 345 345 345 345 348 347 348 346 344 344 343 343 342 337 335 336 338 339 340 341 341 341 340 337 331 327 327
341 338 340 343 344 341 344 344 344 344 345 343 342 344 343 343 343 344 344 344 347 346 347 351 350 349 349 347 342 342 336 335 337 338 338 339 339 336 331 326 320 318 327
336 336 338 342 343 343 344 342 342 343 343 343 343 344 345 343 343 341 341 343 346 346 346 345 345 348 348 348 344 342 342 337 335 335 336 336 333 332 330 320 316 315 319
338 334 337 342 342 343 346 343 340 342 339 341 345 344 344 341 335 341 338 341 346 346 346 345 345 343 344 347 344 343 342 342 338 335 334 334 333 331 325 316 314 313 315
339 336 334 342 346 347 344 342 340 339 348 344 343 344 342 334 334 331 340 342 344 346 345 346 346 346 344 343 348 345 342 342 341 338 336 335 333 328 318 316 314 312 313
342 336 340 344 346 347 345 345 339 337 346 344 345 344 340 343 338 341 340 338 336 342 338 337 339 346 345 344 345 345 343 342 342 339 339 339 335 326 321 318 315 313 312
343 339 337 340 344 343 341 341 346 340 344 343 338 342 342 337 339 345 343 343 341 342 340 340 342 341 346 346 344 345 345 343 343 342 339 339 339 332 328 327 322 318 316
343 342 339 337 337 337 336 337 339 345 345 341 343 341 340 342 344 345 345 344 345 345 343 343 342 344 346 348 347 346 347 344 343 343 342 340 339 338 336 335 335 332 328
345 345 343 342 341 336 337 338 342 341 344 344 338 336 339 340 342 345 346 345 343 345 345 346 344 343 345 347 347 347 345 342 343 343 343 341 340 339 338 338 338 338 338
342 344 343 341 343 341 339 339 339 340 340 340 343 338 337 342 341 346 346 345 344 344 346 349 346 344 339 344 343 346 346 345 343 344 344 343 342 341 340 340 339 339 338
345 345 344 345 344 344 343 344 343 338 340 342 345 345 348 343 343 346 347 346 345 346 343 347 347 348 346 346 345 346 345 346 345 344 344 344 343 342 342 341 341 340 339
347 346 346 346 347 346 343 347 344 347 344 342 345 347 348 347 349 349 348 346 346 346 346 347 347 347 348 348 347 346 346 347 345 343 343 343 342 342 342 342 341 340 339
345 346 346 346 348 346 345 347 345 344 345 344 346 346 344 344 345 347 346 343 346 345 344 345 345 345 345 345 345 345 347 346 344 344 345 346 346 345 343 342 341 340 340
343 345 345 345 349 347 344 344 347 345 347 342 343 343 347 347 344 344 346 345 346 345 345 343 343 344 344 349 346 342 344 344 345 344 344 344 344 344 344 344 342 339 338
344 343 345 346 345 345 346 345 342 344 347 346 344 344 344 344 345 342 345 346 345 344 346 343 341 340 339 343 345 347 343 344 346 345 345 344 344 345 345 344 343 342 339
345 345 345 346 344 345 345 342 338 346 344 338 342 341 345 345 346 344 341 344 344 343 344 346 343 342 342 344 346 344 343 344 344 345 345 345 344 342 342 339 338 341 339
342 343 343 344 344 344 344 342 341 339 340 341 342 343 342 343 343 346 345 344 344 347 346 346 347 346 343 342 342 343 343 344 345 346 345 345 342 339 343 341 341 341 338
343 342 342 341 342 344 342 340 342 344 343 344 345 345 345 345 345 344 343 344 345 346 347 348 348 346 343 344 344 343 343 345 345 345 343 342 340 339 343 344 342 338 335
343 343 343 343 343 344 346 344 344 344 345 344 345 346 345 346 344 343 344 344 345 347 348 347 345 343 342 343 344 344 343 342 345 344 342 342 343 343 343 343 339 332 326
339 339 341 344 345 344 343 345 345 344 345 345 346 346 346 346 345 345 345 345 346 347 347 346 344 342 342 342 342 342 342 342 342 342 342 343 343 342 342 337 334 326 324
339 341 341 340 345 344 344 346 346 345 345 344 345 345 346 346 346 345 343 342 343 343 343 344 344 342 342 342 342 342 343 342 343 342 341 342 342 340 335 330 325 324 323
335 339 338 337 343 344 344 343 343 343 343 343 343 344 346 347 345 343 343 342 342 342 342 341 343 342 342 342 342 341 341 340 340 339 339 339 336 335 330 329 326 324 324
Wind_Speed
16 16 17 16 12 9 9 6 6 1 2 5 7 6 6 2 2 10 10 8 5 6 6 7 5 4 2 3 2 1 1 1 2 4 5 6 7 5 3 1 2 3 5
16 16 12 12 8 8 8 6 5 3 3 6 3 4 1 5 6 9 7 9 6 7 5 7 8 7 6 5 3 3 2 2 2 3 3 2 1 1 1 0 2 4 5
14 15 12 9 6 7 8 7 5 3 9 12 4 1 4 5 6 7 6 6 6 6 5 6 7 9 10 8 6 4 4 4 4 4 4 5 4 3 2 4 5 5 4
13 14 11 6 8 8 7 5 5 7 8 6 3 4 5 5 5 8 3 4 7 7 4 6 7 7 9 12 12 9 6 5 4 5 5 4 4 4 5 6 6 5 4
15 11 12 12 12 13 8 3 4 4 2 7 4 6 6 6 5 4 9 6 3 6 7 6 6 6 7 10 12 13 8 6 5 4 4 3 2 3 4 5 6 8 6
15 15 18 14 11 16 7 5 5 3 4 3 2 5 9 5 4 5 8 6 0 5 5 8 4 5 6 11 9 13 12 8 6 4 4 4 4 4 5 9 11 10 9
9 19 24 15 10 10 8 5 11 11 8 3 2 3 4 9 6 3 3 3 2 3 3 5 4 1 2 4 9 9 12 11 9 7 6 5 7 9 10 10 10 10 8
5 12 24 14 8 12 10 6 9 10 8 9 6 3 2 4 7 15 7 3 1 2 1 2 1 3 3 1 6 9 8 10 10 8 7 7 7 7 7 7 6 6 5
8 13 15 12 10 8 5 9 13 10 8 9 9 5 4 5 1 3 4 4 2 4 7 7 8 4 3 1 2 6 8 8 9 8 6 5 5 5 5 5 5 6 7
10 12 13 12 11 7 11 11 13 12 9 7 8 7 6 2 2 4 3 7 6 7 9 7 5 11 4 3 2 4 7 7 7 8 5 6 5 5 6 7 8 8 8
12 14 20 18 15 17 13 12 12 13 12 9 6 7 5 4 4 11 11 10 10 11 4 5 12 10 10 3 1 2 6 7 6 7 6 5 5 5 6 7 8 8 8
15 15 18 21 21 20 19 16 15 14 13 14 10 9 5 4 5 4 10 11 6 3 4 6 5 9 8 8 2 4 6 7 7 6 7 5 5 5 5 6 7 8 9
22 18 16 17 15 17 19 18 16 14 16 15 14 13 10 5 4 6 7 7 5 7 6 3 3 7 4 10 4 4 5 8 8 6 7 7 5 4 4 4 5 6 7
21 19 18 16 14 14 17 18 16 16 14 15 14 14 12 9 9 10 8 5 5 2 4 8 5 7 8 11 11 7 4 8 7 7 7 8 7 6 6 6 6 6 7
24 20 19 18 20 18 16 16 17 15 13 12 12 11 11 11 10 9 2 5 5 5 6 6 2 5 9 3 5 7 8 8 8 9 8 9 8 8 8 8 9 9 9
24 24 21 24 25 21 17 18 17 15 14 15 14 14 14 12 8 8 6 6 6 6 1 2 2 1 5 5 7 9 9 10 8 8 7 6 6 7 8 9 10 10 11
29 28 28 24 27 25 20 19 17 17 16 19 16 16 14 14 13 13 14 11 10 9 8 8 6 6 7 8 9 10 11 12 10 9 9 9 10 9 9 10 10 12 13
31 29 29 23 26 27 22 22 20 19 19 17 18 20 16 15 14 15 13 13 12 12 11 13 13 9 10 13 10 10 10 11 10 12 12 13 12 11 11 12 11 11 12
35 30 27 26 26 27 24 22 21 22 19 19 18 17 18 16 15 14 13 13 14 17 16 14 14 15 13 11 12 10 12 17 16 16 13 12 12 14 13 14 14 14 13
36 35 32 30 28 26 26 25 23 24 23 22 22 22 18 17 15 15 16 18 19 15 16 15 15 14 13 12 12 12 16 18 18 18 15 15 12 15 20 17 18 17 15
36 37 37 33 30 31 28 28 25 24 23 19 18 18 19 20 17 16 17 15 14 15 14 14 14 14 14 14 14 15 16 16 17 17 17 18 19 19 21 19 18 18 17
25 31 34 34 33 29 29 29 26 25 24 22 22 20 20 21 21 19 17 16 16 17 17 17 16 17 16 16 16 15 15 16 16 16 18 20 20 21 22 22 22 21 20
26 30 33 33 33 32 31 29 27 26 26 25 24 20 21 20 18 18 17 19 19 18 17 17 18 19 19 17 17 15 16 16 17 18 19 19 20 23 24 22 24 21 18
31 36 34 35 32 31 31 31 28 27 27 28 23 23 24 22 21 21 21 21 22 21 20 21 21 19 18 18 16 15 16 17 19 19 19 21 23 25 25 23 24 21 16
31 36 38 29 27 31 32 31 30 29 29 31 30 27 26 25 25 24 25 25 25 25 24 22 21 21 21 19 19 19 18 19 19 21 22 23 24 24 23 19 18 16 15
15 17 23 30 30 33 33 31 29 28 29 28 31 33 32 30 27 26 26 25 24 22 22 22 22 22 21 20 18 18 18 16 13 14 16 20 23 17 12 15 15 14 11
Wind_Direction
135 144 144 136 142 130 125 111 109 195 11 35 53 84 91 92 280 36 22 80 85 75 77 65 82 89 85 59 15 341 287 295 308 298 298 299 300 307 296 334 296 302 305
143 150 159 154 151 143 149 130 97 89 304 324 19 61 98 46 39 37 35 46 76 70 69 66 66 66 61 54 42 35 33 20 344 318 304 293 355 87 110 235 312 313 311
161 164 175 178 167 151 160 146 151 287 296 287 278 16 359 11 42 345 19 24 139 61 54 75 71 63 51 37 30 16 6 12 30 48 76 78 75 69 32 346 327 322 338
176 174 186 191 179 182 180 186 225 243 280 262 251 268 285 279 291 295 321 358 52 89 64 90 76 65 55 45 37 31 38 36 56 70 71 71 57 20 346 334 328 339 353
181 194 214 204 205 195 205 196 207 296 282 237 257 244 273 266 279 333 323 320 31 65 112 87 63 40 38 34 34 34 45 51 60 69 70 60 30 1 349 339 357 6 1
201 205 196 199 188 192 185 188 235 255 156 144 283 247 227 227 251 331 1 351 64 116 92 109 48 25 29 19 25 32 33 39 44 46 43 44 42 42 23 19 16 8 12
178 210 198 181 175 163 167 202 214 222 213 188 252 224 230 239 244 280 350 333 45 140 94 101 86 65 353 11 17 25 29 26 24 24 24 41 38 27 19 14 10 7 0
193 188 170 179 180 169 180 203 223 219 224 222 239 259 238 258 293 257 264 262 249 163 208 271 128 104 100 13 23 24 19 19 17 21 34 34 26 19 14 10 11 12 10
181 169 192 200 206 178 206 226 238 235 233 232 239 245 225 232 83 143 181 170 232 279 286 284 300 255 117 103 20 15 9 7 10 17 26 27 22 22 22 27 25 20 20
216 213 209 217 217 218 228 234 237 231 225 233 239 246 248 280 281 326 219 213 272 329 296 270 279 238 226 110 3 356 352 355 355 7 12 21 21 21 26 31 31 31 29
222 229 223 230 236 237 234 237 233 229 232 240 243 224 220 297 298 296 292 327 291 280 301 296 234 241 232 198 161 325 335 343 334 342 352 360 14 27 30 31 32 31 28
218 226 227 232 235 235 234 232 243 243 243 246 247 231 237 224 349 344 289 302 297 300 263 344 215 234 223 229 219 316 319 319 314 305 329 338 355 8 20 23 22 19 16
219 223 230 228 229 221 228 232 235 240 240 249 255 250 248 247 286 286 297 310 282 298 280 291 317 247 258 230 224 272 310 313 302 283 300 323 321 333 347 0 6 3 359
232 237 235 223 216 220 224 228 234 236 237 237 238 249 260 261 268 257 279 264 315 309 300 347 304 231 236 303 234 260 285 303 293 294 288 303 305 302 316 330 335 337 341
229 235 231 229 225 226 223 225 231 231 221 212 211 223 225 235 241 230 235 229 303 273 298 343 294 254 267 209 233 251 302 304 298 293 283 291 293 301 308 314 318 319 321
228 233 235 238 233 227 232 228 226 221 222 224 225 225 229 237 240 229 261 262 269 279 279 330 23 161 228 231 273 268 281 286 295 283 275 279 287 300 305 304 306 306 307
227 235 243 246 225 224 220 221 225 231 243 239 240 241 240 247 247 252 249 254 258 259 270 272 288 265 263 269 261 264 277 278 284 277 264 259 266 285 301 303 304 304 303
224 234 239 240 226 225 225 227 229 240 244 251 246 251 244 247 248 245 243 248 259 259 269 271 275 275 279 277 285 287 274 278 271 277 277 271 268 276 288 297 301 309 303
228 225 226 227 230 224 229 228 242 237 243 253 250 253 241 238 242 239 244 255 266 270 270 280 284 280 282 277 280 281 270 270 280 280 275 262 259 265 273 286 290 293 297
232 229 225 227 228 230 226 246 245 243 250 262 256 250 241 242 243 251 255 259 260 267 268 270 280 279 276 270 270 273 272 276 279 278 269 256 246 267 275 272 285 277 280
235 237 235 236 235 238 241 239 248 252 252 250 248 248 245 248 253 258 262 257 250 260 260 265 274 277 274 269 266 267 268 273 273 267 265 264 264 268 266 269 275 274 279
238 230 237 244 243 244 250 250 248 252 249 247 243 245 250 254 259 258 257 257 258 255 259 267 278 282 287 279 270 270 268 269 268 267 273 269 267 269 267 270 273 275 279
232 238 240 238 245 246 248 245 247 245 244 240 244 250 258 262 263 259 263 262 258 264 267 269 271 279 282 280 281 277 269 267 264 267 272 270 269 268 268 265 268 265 271
247 243 254 240 240 246 242 242 245 243 242 242 251 258 257 264 262 266 266 264 263 267 268 274 276 278 279 281 279 274 268 268 270 269 266 267 277 275 266 258 260 259 268
239 244 242 249 242 245 246 245 243 242 244 244 243 248 252 253 257 264 264 263 264 268 269 270 271 273 278 273 273 272 270 276 276 274 277 275 268 258 255 255 262 268 267
287 267 237 255 238 245 245 242 243 244 244 247 247 247 249 254 257 262 264 262 260 262 266 268 268 271 273 274 277 282 284 283 273 271 266 253 257 265 259 264 264 263 273